iso_date,epoch_date,Year,Hour,Min,DOY,POS_DOY,Lat,Lon,BP,Ts,Ta,has_bp,has_ts,has_ta,BuoyID,Buoy_Type,Buoy_Owner,Logistics,Hemisphere
2017-12-29T13:00:28Z,1514552429,2017,13,0,363.542,363.542,-69.6438,-109.972,984.0,-1.04,-999.0,yes,yes,no,300234064820360,BD2GI,AOML,Palmer,South
2017-12-29T13:59:31Z,1514555971,2017,14,0,363.583,363.583,-69.6458,-109.9462,983.9,-1.09,-999.0,yes,yes,no,300234064820360,BD2GI,AOML,Palmer,South
2017-12-29T15:00:00Z,1514559600,2017,15,0,363.625,363.625,-69.6444,-109.9206,984.1,-1.03,-999.0,yes,yes,no,300234064820360,BD2GI,AOML,Palmer,South
2017-12-29T16:00:28Z,1514563229,2017,16,0,363.667,363.667,-69.6418,-109.9014,984.2,-1.02,-999.0,yes,yes,no,300234064820360,BD2GI,AOML,Palmer,South
2017-12-29T16:59:31Z,1514566771,2017,17,0,363.708,363.708,-69.6404,-109.8904,984.4,-1.07,-999.0,yes,yes,no,300234064820360,BD2GI,AOML,Palmer,South
2017-12-29T18:00:00Z,1514570400,2017,18,0,363.75,363.75,-69.6408,-109.8828,984.6,-0.93,-999.0,yes,yes,no,300234064820360,BD2GI,AOML,Palmer,South
2017-12-29T19:00:28Z,1514574029,2017,19,0,363.792,363.792,-69.6426,-109.8788,984.8,-0.82,-999.0,yes,yes,no,300234064820360,BD2GI,AOML,Palmer,South
2017-12-29T19:59:31Z,1514577571,2017,20,0,363.833,363.833,-69.644,-109.8768,985.0,-0.79,-999.0,yes,yes,no,300234064820360,BD2GI,AOML,Palmer,South
2017-12-29T21:00:00Z,1514581200,2017,21,0,363.875,363.875,-69.645,-109.8746,985.1,-0.75,-999.0,yes,yes,no,300234064820360,BD2GI,AOML,Palmer,South
2017-12-29T22:00:28Z,1514584829,2017,22,0,363.917,363.917,-69.6482,-109.8722,985.1,-0.93,-999.0,yes,yes,no,300234064820360,BD2GI,AOML,Palmer,South
2017-12-29T22:59:31Z,1514588371,2017,23,0,363.958,363.958,-69.6524,-109.8692,985.4,-0.76,-999.0,yes,yes,no,300234064820360,BD2GI,AOML,Palmer,South
2017-12-30T00:00:00Z,1514592000,2017,0,0,364.0,364.0,-69.6564,-109.8592,985.7,-0.71,-999.0,yes,yes,no,300234064820360,BD2GI,AOML,Palmer,South
2017-12-30T01:00:28Z,1514595629,2017,1,0,364.042,364.042,-69.6594,-109.849,985.8,-0.67,-999.0,yes,yes,no,300234064820360,BD2GI,AOML,Palmer,South
2017-12-30T01:59:31Z,1514599171,2017,2,0,364.083,364.083,-69.661,-109.8412,986.0,-0.68,-999.0,yes,yes,no,300234064820360,BD2GI,AOML,Palmer,South
2017-12-30T03:00:00Z,1514602800,2017,3,0,364.125,364.125,-69.6618,-109.8304,986.2,-0.8,-999.0,yes,yes,no,300234064820360,BD2GI,AOML,Palmer,South
2017-12-30T04:00:28Z,1514606429,2017,4,0,364.167,364.167,-69.663,-109.8222,986.3,-0.73,-999.0,yes,yes,no,300234064820360,BD2GI,AOML,Palmer,South
2017-12-30T04:59:31Z,1514609971,2017,5,0,364.208,364.208,-69.6632,-109.8174,986.6,-0.88,-999.0,yes,yes,no,300234064820360,BD2GI,AOML,Palmer,South
2017-12-30T06:00:00Z,1514613600,2017,6,0,364.25,364.25,-69.6622,-109.8112,986.8,-1.12,-999.0,yes,yes,no,300234064820360,BD2GI,AOML,Palmer,South
2017-12-30T07:00:28Z,1514617229,2017,7,0,364.292,364.292,-69.6618,-109.8082,987.0,-1.05,-999.0,yes,yes,no,300234064820360,BD2GI,AOML,Palmer,South
2017-12-30T07:59:31Z,1514620771,2017,8,0,364.333,364.333,-69.6624,-109.8082,987.2,-0.89,-999.0,yes,yes,no,300234064820360,BD2GI,AOML,Palmer,South
2017-12-30T09:00:00Z,1514624400,2017,9,0,364.375,364.375,-69.664,-109.81,987.3,-0.91,-999.0,yes,yes,no,300234064820360,BD2GI,AOML,Palmer,South
2017-12-30T10:00:28Z,1514628029,2017,10,0,364.417,364.417,-69.6658,-109.8108,987.4,-1.26,-999.0,yes,yes,no,300234064820360,BD2GI,AOML,Palmer,South
2017-12-30T10:59:31Z,1514631571,2017,11,0,364.458,364.458,-69.6676,-109.8088,987.5,-1.29,-999.0,yes,yes,no,300234064820360,BD2GI,AOML,Palmer,South
2017-12-30T12:00:00Z,1514635200,2017,12,0,364.5,364.5,-69.669,-109.805,987.6,-1.28,-999.0,yes,yes,no,300234064820360,BD2GI,AOML,Palmer,South
2017-12-30T13:00:28Z,1514638829,2017,13,0,364.542,364.542,-69.6706,-109.8002,987.7,-1.48,-999.0,yes,yes,no,300234064820360,BD2GI,AOML,Palmer,South
2017-12-30T13:59:31Z,1514642371,2017,14,0,364.583,364.583,-69.673,-109.7934,987.9,-1.46,-999.0,yes,yes,no,300234064820360,BD2GI,AOML,Palmer,South
2017-12-30T15:00:00Z,1514646000,2017,15,0,364.625,364.625,-69.6742,-109.7814,988.0,-1.22,-999.0,yes,yes,no,300234064820360,BD2GI,AOML,Palmer,South
2017-12-30T16:00:28Z,1514649629,2017,16,0,364.667,364.667,-69.674,-109.7678,988.1,-1.39,-999.0,yes,yes,no,300234064820360,BD2GI,AOML,Palmer,South
2017-12-30T16:59:31Z,1514653171,2017,17,0,364.708,364.708,-69.6734,-109.761,988.3,-1.01,-999.0,yes,yes,no,300234064820360,BD2GI,AOML,Palmer,South
2017-12-30T18:00:00Z,1514656800,2017,18,0,364.75,364.75,-69.6734,-109.755,988.4,-0.93,-999.0,yes,yes,no,300234064820360,BD2GI,AOML,Palmer,South
2017-12-30T19:00:28Z,1514660429,2017,19,0,364.792,364.792,-69.6734,-109.7508,988.6,-1.04,-999.0,yes,yes,no,300234064820360,BD2GI,AOML,Palmer,South
2017-12-30T19:59:31Z,1514663971,2017,20,0,364.833,364.833,-69.6732,-109.7454,988.9,-0.8,-999.0,yes,yes,no,300234064820360,BD2GI,AOML,Palmer,South
2017-12-30T21:00:00Z,1514667600,2017,21,0,364.875,364.875,-69.672,-109.7428,989.1,-0.98,-999.0,yes,yes,no,300234064820360,BD2GI,AOML,Palmer,South
2017-12-30T22:00:28Z,1514671229,2017,22,0,364.917,364.917,-69.671,-109.7394,989.2,-0.56,-999.0,yes,yes,no,300234064820360,BD2GI,AOML,Palmer,South
2017-12-30T22:59:31Z,1514674771,2017,23,0,364.958,364.958,-69.6704,-109.7362,989.5,-0.59,-999.0,yes,yes,no,300234064820360,BD2GI,AOML,Palmer,South
2017-12-31T00:00:00Z,1514678400,2017,0,0,365.0,365.0,-69.6714,-109.7338,989.6,-0.51,-999.0,yes,yes,no,300234064820360,BD2GI,AOML,Palmer,South
2017-12-31T01:00:28Z,1514682029,2017,1,0,365.042,365.042,-69.6718,-109.7304,989.8,-0.55,-999.0,yes,yes,no,300234064820360,BD2GI,AOML,Palmer,South
2017-12-31T01:59:31Z,1514685571,2017,2,0,365.083,365.083,-69.6716,-109.7288,990.0,-0.56,-999.0,yes,yes,no,300234064820360,BD2GI,AOML,Palmer,South
2017-12-31T03:00:00Z,1514689200,2017,3,0,365.125,365.125,-69.672,-109.726,990.2,-0.58,-999.0,yes,yes,no,300234064820360,BD2GI,AOML,Palmer,South
2017-12-31T04:00:28Z,1514692829,2017,4,0,365.167,365.167,-69.6728,-109.7234,990.5,-0.59,-999.0,yes,yes,no,300234064820360,BD2GI,AOML,Palmer,South
2017-12-31T04:59:31Z,1514696371,2017,5,0,365.208,365.208,-69.674,-109.7222,990.8,-0.62,-999.0,yes,yes,no,300234064820360,BD2GI,AOML,Palmer,South
2017-12-31T06:00:00Z,1514700000,2017,6,0,365.25,365.25,-69.6738,-109.7172,991.0,-0.67,-999.0,yes,yes,no,300234064820360,BD2GI,AOML,Palmer,South
2017-12-31T07:00:28Z,1514703629,2017,7,0,365.292,365.292,-69.6706,-109.7044,991.5,-0.76,-999.0,yes,yes,no,300234064820360,BD2GI,AOML,Palmer,South
2017-12-31T07:59:31Z,1514707171,2017,8,0,365.333,365.333,-69.6676,-109.693,991.9,-0.77,-999.0,yes,yes,no,300234064820360,BD2GI,AOML,Palmer,South
2017-12-31T09:00:00Z,1514710800,2017,9,0,365.375,365.375,-69.6638,-109.6774,992.1,-1.2,-999.0,yes,yes,no,300234064820360,BD2GI,AOML,Palmer,South
2017-12-31T10:00:28Z,1514714429,2017,10,0,365.417,365.417,-69.6606,-109.6582,992.5,-0.81,-999.0,yes,yes,no,300234064820360,BD2GI,AOML,Palmer,South
2017-12-31T10:59:31Z,1514717971,2017,11,0,365.458,365.458,-69.6582,-109.6458,992.9,-0.69,-999.0,yes,yes,no,300234064820360,BD2GI,AOML,Palmer,South
2017-12-31T12:00:00Z,1514721600,2017,12,0,365.5,365.5,-69.6542,-109.6198,993.2,-1.02,-999.0,yes,yes,no,300234064820360,BD2GI,AOML,Palmer,South
2017-12-31T13:00:28Z,1514725229,2017,13,0,365.542,365.542,-69.6526,-109.6066,993.5,-0.72,-999.0,yes,yes,no,300234064820360,BD2GI,AOML,Palmer,South
2017-12-31T13:59:31Z,1514728771,2017,14,0,365.583,365.583,-69.6536,-109.5984,993.7,-0.7,-999.0,yes,yes,no,300234064820360,BD2GI,AOML,Palmer,South
2017-12-31T15:00:00Z,1514732400,2017,15,0,365.625,365.625,-69.6554,-109.5894,993.9,-0.71,-999.0,yes,yes,no,300234064820360,BD2GI,AOML,Palmer,South
2017-12-31T16:00:28Z,1514736029,2017,16,0,365.667,365.667,-69.6574,-109.5812,993.9,-0.7,-999.0,yes,yes,no,300234064820360,BD2GI,AOML,Palmer,South
2017-12-31T16:59:31Z,1514739571,2017,17,0,365.708,365.708,-69.6602,-109.572,994.0,-0.64,-999.0,yes,yes,no,300234064820360,BD2GI,AOML,Palmer,South
2017-12-31T18:00:00Z,1514743200,2017,18,0,365.75,365.75,-69.662,-109.5614,994.2,-0.57,-999.0,yes,yes,no,300234064820360,BD2GI,AOML,Palmer,South
2017-12-31T19:00:28Z,1514746829,2017,19,0,365.792,365.792,-69.664,-109.5462,994.3,-0.51,-999.0,yes,yes,no,300234064820360,BD2GI,AOML,Palmer,South
2017-12-31T19:59:31Z,1514750371,2017,20,0,365.833,365.833,-69.6644,-109.53,994.4,-0.49,-999.0,yes,yes,no,300234064820360,BD2GI,AOML,Palmer,South
2017-12-31T21:00:00Z,1514754000,2017,21,0,365.875,365.875,-69.6646,-109.5118,994.6,-0.52,-999.0,yes,yes,no,300234064820360,BD2GI,AOML,Palmer,South
2017-12-31T22:00:28Z,1514757629,2017,22,0,365.917,365.917,-69.6654,-109.4932,994.7,-0.53,-999.0,yes,yes,no,300234064820360,BD2GI,AOML,Palmer,South
2017-12-31T22:59:31Z,1514761171,2017,23,0,365.958,365.958,-69.6668,-109.4732,994.8,-0.52,-999.0,yes,yes,no,300234064820360,BD2GI,AOML,Palmer,South
2018-01-01T00:00:00Z,1514764800,2018,0,0,1.0,1.0,-69.668,-109.46,994.8,-0.59,-999.0,yes,yes,no,300234064820360,BD2GI,AOML,Palmer,South
2018-01-01T01:00:28Z,1514768429,2018,1,0,1.042,1.042,-69.6688,-109.4506,994.8,-0.69,-999.0,yes,yes,no,300234064820360,BD2GI,AOML,Palmer,South
2018-01-01T01:59:31Z,1514771971,2018,2,0,1.083,1.083,-69.6702,-109.4456,994.7,-0.67,-999.0,yes,yes,no,300234064820360,BD2GI,AOML,Palmer,South
2018-01-01T03:00:00Z,1514775600,2018,3,0,1.125,1.125,-69.6718,-109.443,994.6,-0.63,-999.0,yes,yes,no,300234064820360,BD2GI,AOML,Palmer,South
2018-01-01T04:00:28Z,1514779229,2018,4,0,1.167,1.167,-69.6746,-109.4416,994.7,-0.74,-999.0,yes,yes,no,300234064820360,BD2GI,AOML,Palmer,South
2018-01-01T04:59:31Z,1514782771,2018,5,0,1.208,1.208,-69.6778,-109.44,994.7,-0.72,-999.0,yes,yes,no,300234064820360,BD2GI,AOML,Palmer,South
2018-01-01T06:00:00Z,1514786400,2018,6,0,1.25,1.25,-69.6812,-109.4362,994.8,-0.75,-999.0,yes,yes,no,300234064820360,BD2GI,AOML,Palmer,South
2018-01-01T07:00:28Z,1514790029,2018,7,0,1.292,1.292,-69.6846,-109.4308,994.9,-0.78,-999.0,yes,yes,no,300234064820360,BD2GI,AOML,Palmer,South
2018-01-01T07:59:31Z,1514793571,2018,8,0,1.333,1.333,-69.6878,-109.4242,994.9,-0.78,-999.0,yes,yes,no,300234064820360,BD2GI,AOML,Palmer,South
2018-01-01T09:00:00Z,1514797200,2018,9,0,1.375,1.375,-69.6894,-109.4156,995.0,-0.82,-999.0,yes,yes,no,300234064820360,BD2GI,AOML,Palmer,South
2018-01-01T10:00:28Z,1514800829,2018,10,0,1.417,1.417,-69.6906,-109.409,994.9,-0.84,-999.0,yes,yes,no,300234064820360,BD2GI,AOML,Palmer,South
2018-01-01T10:59:31Z,1514804371,2018,11,0,1.458,1.458,-69.6916,-109.3998,995.0,-0.7,-999.0,yes,yes,no,300234064820360,BD2GI,AOML,Palmer,South
2018-01-01T12:00:00Z,1514808000,2018,12,0,1.5,1.5,-69.6926,-109.3874,994.8,-0.7,-999.0,yes,yes,no,300234064820360,BD2GI,AOML,Palmer,South
2018-01-01T13:00:28Z,1514811629,2018,13,0,1.542,1.542,-69.6934,-109.376,994.7,-0.66,-999.0,yes,yes,no,300234064820360,BD2GI,AOML,Palmer,South
2018-01-01T13:59:31Z,1514815171,2018,14,0,1.583,1.583,-69.694,-109.3658,994.6,-0.67,-999.0,yes,yes,no,300234064820360,BD2GI,AOML,Palmer,South
2018-01-01T15:00:00Z,1514818800,2018,15,0,1.625,1.625,-69.696,-109.356,994.4,-0.67,-999.0,yes,yes,no,300234064820360,BD2GI,AOML,Palmer,South
2018-01-01T16:00:28Z,1514822429,2018,16,0,1.667,1.667,-69.699,-109.3462,994.2,-0.69,-999.0,yes,yes,no,300234064820360,BD2GI,AOML,Palmer,South
2018-01-01T16:59:31Z,1514825971,2018,17,0,1.708,1.708,-69.7018,-109.3362,994.0,-0.68,-999.0,yes,yes,no,300234064820360,BD2GI,AOML,Palmer,South
2018-01-01T18:00:00Z,1514829600,2018,18,0,1.75,1.75,-69.7048,-109.3266,993.7,-0.68,-999.0,yes,yes,no,300234064820360,BD2GI,AOML,Palmer,South
2018-01-01T19:00:28Z,1514833229,2018,19,0,1.792,1.792,-69.7082,-109.3166,993.5,-0.67,-999.0,yes,yes,no,300234064820360,BD2GI,AOML,Palmer,South
2018-01-01T19:59:31Z,1514836771,2018,20,0,1.833,1.833,-69.7124,-109.3068,993.4,-0.67,-999.0,yes,yes,no,300234064820360,BD2GI,AOML,Palmer,South
2018-01-01T21:00:00Z,1514840400,2018,21,0,1.875,1.875,-69.7174,-109.2942,993.2,-0.67,-999.0,yes,yes,no,300234064820360,BD2GI,AOML,Palmer,South
2018-01-01T22:00:28Z,1514844029,2018,22,0,1.917,1.917,-69.7232,-109.2796,993.0,-0.66,-999.0,yes,yes,no,300234064820360,BD2GI,AOML,Palmer,South
2018-01-01T22:59:31Z,1514847571,2018,23,0,1.958,1.958,-69.7284,-109.2676,992.9,-0.66,-999.0,yes,yes,no,300234064820360,BD2GI,AOML,Palmer,South
2018-01-02T00:00:00Z,1514851200,2018,0,0,2.0,2.0,-69.7306,-109.257,992.6,-0.64,-999.0,yes,yes,no,300234064820360,BD2GI,AOML,Palmer,South
2018-01-02T01:00:28Z,1514854829,2018,1,0,2.042,2.042,-69.7314,-109.2476,992.4,-0.65,-999.0,yes,yes,no,300234064820360,BD2GI,AOML,Palmer,South
2018-01-02T01:59:31Z,1514858371,2018,2,0,2.083,2.083,-69.7324,-109.2398,991.9,-0.65,-999.0,yes,yes,no,300234064820360,BD2GI,AOML,Palmer,South
2018-01-02T03:00:00Z,1514862000,2018,3,0,2.125,2.125,-69.7334,-109.237,991.6,-0.66,-999.0,yes,yes,no,300234064820360,BD2GI,AOML,Palmer,South
2018-01-02T04:00:28Z,1514865629,2018,4,0,2.167,2.167,-69.7362,-109.2394,991.2,-0.67,-999.0,yes,yes,no,300234064820360,BD2GI,AOML,Palmer,South
2018-01-02T04:59:31Z,1514869171,2018,5,0,2.208,2.208,-69.7398,-109.2418,990.9,-0.68,-999.0,yes,yes,no,300234064820360,BD2GI,AOML,Palmer,South
2018-01-02T06:00:00Z,1514872800,2018,6,0,2.25,2.25,-69.7434,-109.2452,990.8,-0.68,-999.0,yes,yes,no,300234064820360,BD2GI,AOML,Palmer,South
2018-01-02T07:00:28Z,1514876429,2018,7,0,2.292,2.292,-69.7474,-109.2468,990.5,-0.69,-999.0,yes,yes,no,300234064820360,BD2GI,AOML,Palmer,South
2018-01-02T07:59:31Z,1514879971,2018,8,0,2.333,2.333,-69.7516,-109.247,990.2,-0.69,-999.0,yes,yes,no,300234064820360,BD2GI,AOML,Palmer,South
2018-01-02T09:00:00Z,1514883600,2018,9,0,2.375,2.375,-69.7566,-109.2472,989.6,-0.69,-999.0,yes,yes,no,300234064820360,BD2GI,AOML,Palmer,South
2018-01-02T10:00:28Z,1514887229,2018,10,0,2.417,2.417,-69.7614,-109.244,989.4,-0.69,-999.0,yes,yes,no,300234064820360,BD2GI,AOML,Palmer,South
2018-01-02T10:59:31Z,1514890771,2018,11,0,2.458,2.458,-69.7646,-109.2378,988.9,-0.7,-999.0,yes,yes,no,300234064820360,BD2GI,AOML,Palmer,South
2018-01-02T12:00:00Z,1514894400,2018,12,0,2.5,2.5,-69.7666,-109.2332,988.4,-0.7,-999.0,yes,yes,no,300234064820360,BD2GI,AOML,Palmer,South
2018-01-02T13:00:28Z,1514898029,2018,13,0,2.542,2.542,-69.7682,-109.2306,987.9,-0.71,-999.0,yes,yes,no,300234064820360,BD2GI,AOML,Palmer,South
2018-01-02T13:59:31Z,1514901571,2018,14,0,2.583,2.583,-69.7684,-109.2296,987.1,-0.72,-999.0,yes,yes,no,300234064820360,BD2GI,AOML,Palmer,South
2018-01-02T15:00:00Z,1514905200,2018,15,0,2.625,2.625,-69.7684,-109.2306,986.0,-0.72,-999.0,yes,yes,no,300234064820360,BD2GI,AOML,Palmer,South
2018-01-02T16:00:28Z,1514908829,2018,16,0,2.667,2.667,-69.7694,-109.2346,984.8,-0.72,-999.0,yes,yes,no,300234064820360,BD2GI,AOML,Palmer,South
2018-01-02T16:59:31Z,1514912371,2018,17,0,2.708,2.708,-69.7712,-109.2418,983.9,-0.71,-999.0,yes,yes,no,300234064820360,BD2GI,AOML,Palmer,South
2018-01-02T18:00:00Z,1514916000,2018,18,0,2.75,2.75,-69.774,-109.2464,983.0,-0.69,-999.0,yes,yes,no,300234064820360,BD2GI,AOML,Palmer,South
2018-01-02T19:00:28Z,1514919629,2018,19,0,2.792,2.792,-69.778,-109.2496,981.7,-0.68,-999.0,yes,yes,no,300234064820360,BD2GI,AOML,Palmer,South
2018-01-02T19:59:31Z,1514923171,2018,20,0,2.833,2.833,-69.7816,-109.2516,980.7,-0.7,-999.0,yes,yes,no,300234064820360,BD2GI,AOML,Palmer,South
2018-01-02T21:00:00Z,1514926800,2018,21,0,2.875,2.875,-69.7852,-109.2528,979.4,-0.71,-999.0,yes,yes,no,300234064820360,BD2GI,AOML,Palmer,South
2018-01-02T22:00:28Z,1514930429,2018,22,0,2.917,2.917,-69.7892,-109.2536,978.0,-0.73,-999.0,yes,yes,no,300234064820360,BD2GI,AOML,Palmer,South
2018-01-02T22:59:31Z,1514933971,2018,23,0,2.958,2.958,-69.794,-109.257,976.8,-0.75,-999.0,yes,yes,no,300234064820360,BD2GI,AOML,Palmer,South
2018-01-03T00:00:00Z,1514937600,2018,0,0,3.0,3.0,-69.8004,-109.2622,975.6,-0.78,-999.0,yes,yes,no,300234064820360,BD2GI,AOML,Palmer,South
2018-01-03T01:00:28Z,1514941229,2018,1,0,3.042,3.042,-69.806,-109.262,974.3,-0.8,-999.0,yes,yes,no,300234064820360,BD2GI,AOML,Palmer,South
2018-01-03T01:59:31Z,1514944771,2018,2,0,3.083,3.083,-69.811,-109.2612,973.1,-0.83,-999.0,yes,yes,no,300234064820360,BD2GI,AOML,Palmer,South
2018-01-03T03:00:00Z,1514948400,2018,3,0,3.125,3.125,-69.8168,-109.268,971.9,-0.84,-999.0,yes,yes,no,300234064820360,BD2GI,AOML,Palmer,South
2018-01-03T04:00:28Z,1514952029,2018,4,0,3.167,3.167,-69.8238,-109.2784,970.8,-0.83,-999.0,yes,yes,no,300234064820360,BD2GI,AOML,Palmer,South
2018-01-03T04:59:31Z,1514955571,2018,5,0,3.208,3.208,-69.83,-109.2844,969.6,-0.84,-999.0,yes,yes,no,300234064820360,BD2GI,AOML,Palmer,South
2018-01-03T06:00:00Z,1514959200,2018,6,0,3.25,3.25,-69.8358,-109.2858,968.6,-0.85,-999.0,yes,yes,no,300234064820360,BD2GI,AOML,Palmer,South
2018-01-03T07:00:28Z,1514962829,2018,7,0,3.292,3.292,-69.8402,-109.2794,968.2,-0.85,-999.0,yes,yes,no,300234064820360,BD2GI,AOML,Palmer,South
2018-01-03T07:59:31Z,1514966371,2018,8,0,3.333,3.333,-69.8438,-109.2734,967.8,-0.85,-999.0,yes,yes,no,300234064820360,BD2GI,AOML,Palmer,South
2018-01-03T09:00:00Z,1514970000,2018,9,0,3.375,3.375,-69.8464,-109.2632,968.0,-0.85,-999.0,yes,yes,no,300234064820360,BD2GI,AOML,Palmer,South
2018-01-03T10:00:28Z,1514973629,2018,10,0,3.417,3.417,-69.8474,-109.2508,968.3,-0.85,-999.0,yes,yes,no,300234064820360,BD2GI,AOML,Palmer,South
2018-01-03T10:59:31Z,1514977171,2018,11,0,3.458,3.458,-69.846,-109.2398,968.9,-0.85,-999.0,yes,yes,no,300234064820360,BD2GI,AOML,Palmer,South
2018-01-03T12:00:00Z,1514980800,2018,12,0,3.5,3.5,-69.8424,-109.2306,970.0,-0.85,-999.0,yes,yes,no,300234064820360,BD2GI,AOML,Palmer,South
2018-01-03T13:00:28Z,1514984429,2018,13,0,3.542,3.542,-69.8386,-109.225,970.9,-0.97,-999.0,yes,yes,no,300234064820360,BD2GI,AOML,Palmer,South
2018-01-03T13:59:31Z,1514987971,2018,14,0,3.583,3.583,-69.8338,-109.2252,972.1,-1.0,-999.0,yes,yes,no,300234064820360,BD2GI,AOML,Palmer,South
2018-01-03T15:00:00Z,1514991600,2018,15,0,3.625,3.625,-69.8304,-109.2284,973.3,-1.02,-999.0,yes,yes,no,300234064820360,BD2GI,AOML,Palmer,South
2018-01-03T16:00:28Z,1514995229,2018,16,0,3.667,3.667,-69.829,-109.231,974.5,-1.01,-999.0,yes,yes,no,300234064820360,BD2GI,AOML,Palmer,South
2018-01-03T16:59:31Z,1514998771,2018,17,0,3.708,3.708,-69.8282,-109.2306,975.6,-1.0,-999.0,yes,yes,no,300234064820360,BD2GI,AOML,Palmer,South
2018-01-03T18:00:00Z,1515002400,2018,18,0,3.75,3.75,-69.8284,-109.228,976.9,-0.98,-999.0,yes,yes,no,300234064820360,BD2GI,AOML,Palmer,South
2018-01-03T19:00:28Z,1515006029,2018,19,0,3.792,3.792,-69.8294,-109.2218,977.9,-0.96,-999.0,yes,yes,no,300234064820360,BD2GI,AOML,Palmer,South
2018-01-03T19:59:31Z,1515009571,2018,20,0,3.833,3.833,-69.8294,-109.2124,979.0,-0.95,-999.0,yes,yes,no,300234064820360,BD2GI,AOML,Palmer,South
2018-01-03T21:00:00Z,1515013200,2018,21,0,3.875,3.875,-69.8296,-109.2042,980.0,-0.93,-999.0,yes,yes,no,300234064820360,BD2GI,AOML,Palmer,South
2018-01-03T22:00:28Z,1515016829,2018,22,0,3.917,3.917,-69.8276,-109.195,980.8,-0.91,-999.0,yes,yes,no,300234064820360,BD2GI,AOML,Palmer,South
2018-01-03T22:59:31Z,1515020371,2018,23,0,3.958,3.958,-69.8254,-109.1884,981.5,-0.9,-999.0,yes,yes,no,300234064820360,BD2GI,AOML,Palmer,South
2018-01-04T00:00:00Z,1515024000,2018,0,0,4.0,4.0,-69.8236,-109.1856,982.1,-0.89,-999.0,yes,yes,no,300234064820360,BD2GI,AOML,Palmer,South
2018-01-04T01:00:28Z,1515027629,2018,1,0,4.042,4.042,-69.822,-109.1844,982.5,-0.89,-999.0,yes,yes,no,300234064820360,BD2GI,AOML,Palmer,South
2018-01-04T01:59:31Z,1515031171,2018,2,0,4.083,4.083,-69.8212,-109.1854,982.7,-0.89,-999.0,yes,yes,no,300234064820360,BD2GI,AOML,Palmer,South
2018-01-04T03:00:00Z,1515034800,2018,3,0,4.125,4.125,-69.8218,-109.189,983.0,-0.89,-999.0,yes,yes,no,300234064820360,BD2GI,AOML,Palmer,South
2018-01-04T04:00:28Z,1515038429,2018,4,0,4.167,4.167,-69.8236,-109.1942,983.1,-0.89,-999.0,yes,yes,no,300234064820360,BD2GI,AOML,Palmer,South
2018-01-04T04:59:31Z,1515041971,2018,5,0,4.208,4.208,-69.8276,-109.1988,983.4,-0.91,-999.0,yes,yes,no,300234064820360,BD2GI,AOML,Palmer,South
2018-01-04T06:00:00Z,1515045600,2018,6,0,4.25,4.25,-69.8318,-109.1984,983.6,-0.9,-999.0,yes,yes,no,300234064820360,BD2GI,AOML,Palmer,South
2018-01-04T07:00:28Z,1515049229,2018,7,0,4.292,4.292,-69.8358,-109.194,983.9,-0.91,-999.0,yes,yes,no,300234064820360,BD2GI,AOML,Palmer,South
2018-01-04T07:59:31Z,1515052771,2018,8,0,4.333,4.333,-69.8392,-109.1874,984.0,-0.9,-999.0,yes,yes,no,300234064820360,BD2GI,AOML,Palmer,South
2018-01-04T09:00:00Z,1515056400,2018,9,0,4.375,4.375,-69.841,-109.181,984.0,-0.89,-999.0,yes,yes,no,300234064820360,BD2GI,AOML,Palmer,South
2018-01-04T10:00:28Z,1515060029,2018,10,0,4.417,4.417,-69.8412,-109.1726,983.9,-0.9,-999.0,yes,yes,no,300234064820360,BD2GI,AOML,Palmer,South
2018-01-04T10:59:31Z,1515063571,2018,11,0,4.458,4.458,-69.8414,-109.166,984.0,-0.89,-999.0,yes,yes,no,300234064820360,BD2GI,AOML,Palmer,South
2018-01-04T12:00:00Z,1515067200,2018,12,0,4.5,4.5,-69.8406,-109.1634,984.0,-0.89,-999.0,yes,yes,no,300234064820360,BD2GI,AOML,Palmer,South
2018-01-04T13:00:28Z,1515070829,2018,13,0,4.542,4.542,-69.84,-109.1622,984.1,-0.89,-999.0,yes,yes,no,300234064820360,BD2GI,AOML,Palmer,South
2018-01-04T13:59:31Z,1515074371,2018,14,0,4.583,4.583,-69.8396,-109.1632,984.0,-0.87,-999.0,yes,yes,no,300234064820360,BD2GI,AOML,Palmer,South
2018-01-04T15:00:00Z,1515078000,2018,15,0,4.625,4.625,-69.8416,-109.1664,983.8,-0.86,-999.0,yes,yes,no,300234064820360,BD2GI,AOML,Palmer,South
2018-01-04T16:00:28Z,1515081629,2018,16,0,4.667,4.667,-69.8442,-109.167,983.6,-0.86,-999.0,yes,yes,no,300234064820360,BD2GI,AOML,Palmer,South
2018-01-04T16:59:31Z,1515085171,2018,17,0,4.708,4.708,-69.8466,-109.1626,983.3,-0.85,-999.0,yes,yes,no,300234064820360,BD2GI,AOML,Palmer,South
2018-01-04T18:00:00Z,1515088800,2018,18,0,4.75,4.75,-69.8484,-109.1562,983.1,-0.83,-999.0,yes,yes,no,300234064820360,BD2GI,AOML,Palmer,South
2018-01-04T19:00:28Z,1515092429,2018,19,0,4.792,4.792,-69.8506,-109.1488,982.8,-0.83,-999.0,yes,yes,no,300234064820360,BD2GI,AOML,Palmer,South
2018-01-04T19:59:31Z,1515095971,2018,20,0,4.833,4.833,-69.8518,-109.1412,982.5,-0.81,-999.0,yes,yes,no,300234064820360,BD2GI,AOML,Palmer,South
2018-01-04T21:00:00Z,1515099600,2018,21,0,4.875,4.875,-69.8524,-109.1312,982.1,-0.81,-999.0,yes,yes,no,300234064820360,BD2GI,AOML,Palmer,South
2018-01-04T22:00:28Z,1515103229,2018,22,0,4.917,4.917,-69.8526,-109.125,981.6,-0.79,-999.0,yes,yes,no,300234064820360,BD2GI,AOML,Palmer,South
2018-01-04T22:59:31Z,1515106771,2018,23,0,4.958,4.958,-69.8532,-109.1212,981.1,-0.79,-999.0,yes,yes,no,300234064820360,BD2GI,AOML,Palmer,South
2018-01-05T00:00:00Z,1515110400,2018,0,0,5.0,5.0,-69.8542,-109.1172,980.4,-0.78,-999.0,yes,yes,no,300234064820360,BD2GI,AOML,Palmer,South
2018-01-05T01:00:28Z,1515114029,2018,1,0,5.042,5.042,-69.8548,-109.1152,979.6,-0.78,-999.0,yes,yes,no,300234064820360,BD2GI,AOML,Palmer,South
2018-01-05T01:59:31Z,1515117571,2018,2,0,5.083,5.083,-69.8546,-109.1144,978.8,-0.79,-999.0,yes,yes,no,300234064820360,BD2GI,AOML,Palmer,South
2018-01-05T03:00:00Z,1515121200,2018,3,0,5.125,5.125,-69.8548,-109.1168,978.0,-0.79,-999.0,yes,yes,no,300234064820360,BD2GI,AOML,Palmer,South
2018-01-05T04:00:28Z,1515124829,2018,4,0,5.167,5.167,-69.855,-109.1232,977.3,-0.8,-999.0,yes,yes,no,300234064820360,BD2GI,AOML,Palmer,South
2018-01-05T04:59:31Z,1515128371,2018,5,0,5.208,5.208,-69.8556,-109.1312,976.7,-0.8,-999.0,yes,yes,no,300234064820360,BD2GI,AOML,Palmer,South
2018-01-05T06:00:00Z,1515132000,2018,6,0,5.25,5.25,-69.8564,-109.1418,976.3,-0.82,-999.0,yes,yes,no,300234064820360,BD2GI,AOML,Palmer,South
2018-01-05T07:00:28Z,1515135629,2018,7,0,5.292,5.292,-69.8596,-109.1536,975.7,-0.82,-999.0,yes,yes,no,300234064820360,BD2GI,AOML,Palmer,South
2018-01-05T07:59:31Z,1515139171,2018,8,0,5.333,5.333,-69.862,-109.163,975.4,-0.83,-999.0,yes,yes,no,300234064820360,BD2GI,AOML,Palmer,South
2018-01-05T09:00:00Z,1515142800,2018,9,0,5.375,5.375,-69.8636,-109.1696,974.8,-0.83,-999.0,yes,yes,no,300234064820360,BD2GI,AOML,Palmer,South
2018-01-05T10:00:28Z,1515146429,2018,10,0,5.417,5.417,-69.8658,-109.178,974.5,-0.83,-999.0,yes,yes,no,300234064820360,BD2GI,AOML,Palmer,South